| time (UTC) | temp F | wind direction | speed MPH | gust MPH | rain 1hr in | rain 24hr in | rain mn in | humidity % | barometer mb |
| 20260906222052 | 98 | 300 | 5.0 | 14.0 | 0.00 | 0.00 | 0.00 | 26 | 1012.2 |
| 20260906221600 | 98 | 290 | 5.0 | 14.0 | 0.00 | 0.00 | 0.00 | 27 | 1012.2 |
| 20260906221052 | 97 | 326 | 3.0 | 13.0 | 0.00 | 0.00 | 0.00 | 27 | 1012.2 |
| 20260906220553 | 97 | 288 | 6.0 | 12.0 | 0.00 | 0.00 | 0.00 | 26 | 1012.2 |
| 20260906220135 | 98 | 250 | 3.0 | 9.0 | 0.00 | 0.00 | 0.00 | 26 | 1012.3 |
| 20260906215549 | 98 | 331 | 4.0 | 9.0 | 0.00 | 0.00 | 0.00 | 26 | 1012.4 |
| 20260906215055 | 97 | 340 | 3.0 | 13.0 | 0.00 | 0.00 | 0.00 | 27 | 1012.4 |
| 20260906214602 | 97 | 269 | 5.0 | 13.0 | 0.00 | 0.00 | 0.00 | 27 | 1012.7 |
| 20260906214052 | 97 | 12 | 5.0 | 13.0 | 0.00 | 0.00 | 0.00 | 27 | 1012.8 |
| 20260906213552 | 96 | 352 | 4.0 | 13.0 | 0.00 | 0.00 | 0.00 | 27 | 1012.7 |
| 20260906213107 | 96 | 264 | 7.0 | 13.0 | 0.00 | 0.00 | 0.00 | 27 | 1012.7 |
| 20260906212553 | 96 | 262 | 4.0 | 12.0 | 0.00 | 0.00 | 0.00 | 27 | 1012.8 |
| 20260906212049 | 96 | 281 | 5.0 | 11.0 | 0.00 | 0.00 | 0.00 | 27 | 1012.9 |
| 20260906211605 | 96 | 254 | 6.0 | 12.0 | 0.00 | 0.00 | 0.00 | 28 | 1012.9 |
| 20260906211053 | 96 | 248 | 6.0 | 12.0 | 0.00 | 0.00 | 0.00 | 28 | 1012.9 |
| 20260906210553 | 96 | 252 | 5.0 | 11.0 | 0.00 | 0.00 | 0.00 | 28 | 1013.0 |
| 20260906210110 | 96 | 284 | 7.0 | 13.0 | 0.00 | 0.00 | 0.00 | 27 | 1013.0 |
| 20260906205555 | 96 | 319 | 5.0 | 13.0 | 0.00 | 0.00 | 0.00 | 27 | 1013.0 |
| 20260906205052 | 96 | 313 | 4.0 | 13.0 | 0.00 | 0.00 | 0.00 | 28 | 1013.1 |
| 20260906204604 | 96 | 347 | 6.0 | 13.0 | 0.00 | 0.00 | 0.00 | 27 | 1013.1 |
| 20260906204052 | 96 | 300 | 5.0 | 14.0 | 0.00 | 0.00 | 0.00 | 27 | 1013.1 |
| 20260906203554 | 96 | 269 | 3.0 | 14.0 | 0.00 | 0.00 | 0.00 | 28 | 1013.2 |
| 20260906203100 | 95 | 307 | 6.0 | 14.0 | 0.00 | 0.00 | 0.00 | 28 | 1013.3 |
| 20260906202552 | 96 | 285 | 7.0 | 14.0 | 0.00 | 0.00 | 0.00 | 28 | 1013.2 |
| 20260906202052 | 96 | 244 | 5.0 | 11.0 | 0.00 | 0.00 | 0.00 | 28 | 1013.4 |
| 20260906201604 | 96 | 292 | 3.0 | 11.0 | 0.00 | 0.00 | 0.00 | 30 | 1013.3 |
| 20260906201053 | 95 | 282 | 5.0 | 13.0 | 0.00 | 0.00 | 0.00 | 29 | 1013.3 |
| 20260906200554 | 95 | 295 | 5.0 | 13.0 | 0.00 | 0.00 | 0.00 | 30 | 1013.4 |
| 20260906200104 | 95 | 304 | 6.0 | 14.0 | 0.00 | 0.00 | 0.00 | 30 | 1013.4 |
| 20260906195552 | 95 | 254 | 4.0 | 14.0 | 0.00 | 0.00 | 0.00 | 29 | 1013.5 |
| 20260906195048 | 95 | 295 | 4.0 | 14.0 | 0.00 | 0.00 | 0.00 | 30 | 1013.6 |
| 20260906194629 | 94 | 343 | 5.0 | 13.0 | 0.00 | 0.00 | 0.00 | 30 | 1013.7 |
| 20260906194053 | 95 | 273 | 5.0 | 12.0 | 0.00 | 0.00 | 0.00 | 30 | 1013.8 |
| 20260906193552 | 95 | 31 | 3.0 | 11.0 | 0.00 | 0.00 | 0.00 | 30 | 1013.8 |
| 20260906193106 | 95 | 311 | 5.0 | 11.0 | 0.00 | 0.00 | 0.00 | 30 | 1013.8 |
| 20260906192553 | 94 | 349 | 4.0 | 11.0 | 0.00 | 0.00 | 0.00 | 31 | 1013.9 |
| 20260906192050 | 94 | 319 | 5.0 | 11.0 | 0.00 | 0.00 | 0.00 | 31 | 1013.9 |
| 20260906191603 | 94 | 290 | 3.0 | 10.0 | 0.00 | 0.00 | 0.00 | 30 | 1014.0 |
| 20260906191050 | 94 | 339 | 4.0 | 11.0 | 0.00 | 0.00 | 0.00 | 30 | 1014.1 |
| 20260906190552 | 93 | 316 | 2.0 | 11.0 | 0.00 | 0.00 | 0.00 | 32 | 1014.1 |
| 20260906185551 | 92 | 306 | 4.0 | 10.0 | 0.00 | 0.00 | 0.00 | 33 | 1014.2 |
| 20260906185053 | 92 | 289 | 5.0 | 11.0 | 0.00 | 0.00 | 0.00 | 32 | 1014.3 |
| 20260906184610 | 92 | 348 | 4.0 | 11.0 | 0.00 | 0.00 | 0.00 | 32 | 1014.4 |
| 20260906184051 | 92 | 292 | 4.0 | 11.0 | 0.00 | 0.00 | 0.00 | 32 | 1014.4 |
| 20260906183549 | 92 | 336 | 4.0 | 12.0 | 0.00 | 0.00 | 0.00 | 32 | 1014.5 |
| 20260906183103 | 92 | 275 | 5.0 | 12.0 | 0.00 | 0.00 | 0.00 | 32 | 1014.5 |
| 20260906182548 | 92 | 282 | 3.0 | 10.0 | 0.00 | 0.00 | 0.00 | 31 | 1014.6 |
| 20260906182051 | 92 | 272 | 3.0 | 11.0 | 0.00 | 0.00 | 0.00 | 33 | 1014.8 |
| 20260906181605 | 91 | 301 | 5.0 | 11.0 | 0.00 | 0.00 | 0.00 | 33 | 1014.9 |
| 20260906181051 | 91 | 352 | 3.0 | 11.0 | 0.00 | 0.00 | 0.00 | 33 | 1014.9 |
| 20260906180555 | 91 | 274 | 5.0 | 11.0 | 0.00 | 0.00 | 0.00 | 33 | 1015.0 |
| 20260906180104 | 91 | 271 | 2.0 | 8.0 | 0.00 | 0.00 | 0.00 | 33 | 1015.0 |
| 20260906175551 | 91 | 329 | 4.0 | 8.0 | 0.00 | 0.00 | 0.00 | 33 | 1014.9 |
| 20260906175051 | 91 | 265 | 3.0 | 10.0 | 0.00 | 0.00 | 0.00 | 34 | 1015.1 |
| 20260906174559 | 90 | 214 | 3.0 | 10.0 | 0.00 | 0.00 | 0.00 | 34 | 1015.0 |
| 20260906174052 | 90 | 277 | 5.0 | 10.0 | 0.00 | 0.00 | 0.00 | 34 | 1015.1 |
| 20260906173553 | 89 | 242 | 5.0 | 10.0 | 0.00 | 0.00 | 0.00 | 34 | 1015.1 |
| 20260906173055 | 89 | 234 | 5.0 | 10.0 | 0.00 | 0.00 | 0.00 | 35 | 1015.0 |
| 20260906172549 | 89 | 238 | 2.0 | 7.0 | 0.00 | 0.00 | 0.00 | 36 | 1015.0 |
| 20260906172051 | 88 | 250 | 1.0 | 5.0 | 0.00 | 0.00 | 0.00 | 37 | 1015.0 |
| 20260906171609 | 88 | 291 | 0.0 | 6.0 | 0.00 | 0.00 | 0.00 | 37 | 1015.0 |
| 20260906171048 | 88 | 288 | 2.0 | 6.0 | 0.00 | 0.00 | 0.00 | 37 | 1015.0 |
| 20260906170554 | 87 | 0 | 0.0 | 4.0 | 0.00 | 0.00 | 0.00 | 37 | 1015.0 |
| 20260906165548 | 87 | 15 | 1.0 | 4.0 | 0.00 | 0.00 | 0.00 | 39 | 1015.1 |
| 20260906165049 | 86 | 336 | 2.0 | 4.0 | 0.00 | 0.00 | 0.00 | 39 | 1015.0 |
| 20260906164601 | 86 | 335 | 1.0 | 3.0 | 0.00 | 0.00 | 0.00 | 40 | 1015.0 |
| 20260906164049 | 85 | 330 | 0.0 | 3.0 | 0.00 | 0.00 | 0.00 | 42 | 1015.0 |
| 20260906163552 | 85 | 0 | 0.0 | 2.0 | 0.00 | 0.00 | 0.00 | 42 | 1015.0 |
| 20260906163105 | 85 | 0 | 0.0 | 3.0 | 0.00 | 0.00 | 0.00 | 43 | 1015.0 |
| 20260906162552 | 84 | 0 | 0.0 | 3.0 | 0.00 | 0.00 | 0.00 | 42 | 1015.0 |
| 20260906162051 | 84 | 0 | 1.0 | 3.0 | 0.00 | 0.00 | 0.00 | 43 | 1015.0 |
| 20260906161605 | 84 | 224 | 0.0 | 3.0 | 0.00 | 0.00 | 0.00 | 44 | 1015.0 |
| 20260906161052 | 84 | 0 | 0.0 | 3.0 | 0.00 | 0.00 | 0.00 | 44 | 1015.0 |
| 20260906160552 | 83 | 0 | 0.0 | 4.0 | 0.00 | 0.00 | 0.00 | 45 | 1015.1 |
| 20260906155552 | 83 | 224 | 1.0 | 4.0 | 0.00 | 0.00 | 0.00 | 45 | 1015.1 |
| 20260906155051 | 82 | 224 | 1.0 | 3.0 | 0.00 | 0.00 | 0.00 | 45 | 1015.2 |
| 20260906154603 | 82 | 0 | 1.0 | 3.0 | 0.00 | 0.00 | 0.00 | 45 | 1015.1 |
| 20260906154049 | 82 | 224 | 1.0 | 3.0 | 0.00 | 0.00 | 0.00 | 46 | 1015.2 |
| 20260906153555 | 82 | 0 | 0.0 | 4.0 | 0.00 | 0.00 | 0.00 | 47 | 1015.2 |
| 20260906153102 | 82 | 224 | 1.0 | 4.0 | 0.00 | 0.00 | 0.00 | 48 | 1015.3 |
| 20260906152557 | 82 | 224 | 2.0 | 4.0 | 0.00 | 0.00 | 0.00 | 48 | 1015.3 |
| 20260906152055 | 81 | 229 | 1.0 | 4.0 | 0.00 | 0.00 | 0.00 | 48 | 1015.2 |
| 20260906151601 | 81 | 229 | 2.0 | 4.0 | 0.00 | 0.00 | 0.00 | 48 | 1015.2 |
| 20260906151054 | 82 | 232 | 1.0 | 3.0 | 0.00 | 0.00 | 0.00 | 48 | 1015.2 |
| 20260906150549 | 82 | 234 | 1.0 | 3.0 | 0.00 | 0.00 | 0.00 | 48 | 1015.1 |
| 20260906150113 | 82 | 0 | 0.0 | 0.0 | 0.00 | 0.00 | 0.00 | 48 | 1015.1 |
| 20260906145553 | 82 | 0 | 0.0 | 0.0 | 0.00 | 0.00 | 0.00 | 47 | 1015.1 |
| 20260906145054 | 82 | 0 | 0.0 | 0.0 | 0.00 | 0.00 | 0.00 | 46 | 1015.1 |
| 20260906144621 | 82 | 0 | 0.0 | 0.0 | 0.00 | 0.00 | 0.00 | 46 | 1015.1 |
| 20260906144053 | 82 | 0 | 0.0 | 0.0 | 0.00 | 0.00 | 0.00 | 45 | 1015.1 |
| 20260906143552 | 82 | 0 | 0.0 | 0.0 | 0.00 | 0.00 | 0.00 | 46 | 1015.2 |
| 20260906143103 | 81 | 0 | 0.0 | 0.0 | 0.00 | 0.00 | 0.00 | 46 | 1015.3 |
| 20260906142552 | 80 | 0 | 0.0 | 0.0 | 0.00 | 0.00 | 0.00 | 47 | 1015.1 |
| 20260906142052 | 79 | 0 | 0.0 | 0.0 | 0.00 | 0.00 | 0.00 | 50 | 1015.0 |
| 20260906141624 | 78 | 0 | 0.0 | 0.0 | 0.00 | 0.00 | 0.00 | 52 | 1015.0 |
| 20260906141057 | 78 | 0 | 0.0 | 2.0 | 0.00 | 0.00 | 0.00 | 51 | 1015.1 |
| 20260906140554 | 78 | 0 | 0.0 | 4.0 | 0.00 | 0.00 | 0.00 | 51 | 1015.0 |
| 20260906140109 | 78 | 0 | 1.0 | 6.0 | 0.00 | 0.00 | 0.00 | 52 | 1014.9 |
| 20260906135556 | 78 | 234 | 3.0 | 6.0 | 0.00 | 0.00 | 0.00 | 52 | 1014.8 |
| 20260906135054 | 77 | 233 | 3.0 | 5.0 | 0.00 | 0.00 | 0.00 | 53 | 1014.9 |
| 20260906134607 | 77 | 217 | 1.0 | 5.0 | 0.00 | 0.00 | 0.00 | 53 | 1014.9 |
| 20260906134054 | 77 | 217 | 3.0 | 5.0 | 0.00 | 0.00 | 0.00 | 53 | 1014.8 |
| 20260906133552 | 77 | 195 | 2.0 | 4.0 | 0.00 | 0.00 | 0.00 | 54 | 1014.8 |
| 20260906133101 | 76 | 193 | 1.0 | 3.0 | 0.00 | 0.00 | 0.00 | 54 | 1014.8 |
| 20260906132555 | 76 | 0 | 0.0 | 0.0 | 0.00 | 0.00 | 0.00 | 55 | 1014.7 |
| 20260906132052 | 76 | 0 | 0.0 | 0.0 | 0.00 | 0.00 | 0.00 | 54 | 1014.8 |
| 20260906131558 | 76 | 0 | 0.0 | 0.0 | 0.00 | 0.00 | 0.00 | 54 | 1014.7 |
| 20260906131052 | 76 | 0 | 0.0 | 0.0 | 0.00 | 0.00 | 0.00 | 54 | 1014.8 |
| 20260906130554 | 76 | 0 | 0.0 | 0.0 | 0.00 | 0.00 | 0.00 | 54 | 1014.6 |
| 20260906125553 | 77 | 0 | 0.0 | 3.0 | 0.00 | 0.00 | 0.00 | 53 | 1014.7 |
| 20260906125053 | 77 | 0 | 1.0 | 5.0 | 0.00 | 0.00 | 0.00 | 53 | 1014.7 |
| 20260906124602 | 77 | 82 | 1.0 | 5.0 | 0.00 | 0.00 | 0.00 | 54 | 1014.6 |
| 20260906124052 | 78 | 82 | 2.0 | 5.0 | 0.00 | 0.00 | 0.00 | 53 | 1014.4 |
| 20260906123552 | 79 | 81 | 0.0 | 2.0 | 0.00 | 0.00 | 0.00 | 51 | 1014.4 |
| 20260906123104 | 80 | 0 | 0.0 | 2.0 | 0.00 | 0.00 | 0.00 | 49 | 1014.2 |
| 20260906122550 | 80 | 0 | 0.0 | 3.0 | 0.00 | 0.00 | 0.00 | 43 | 1014.3 |
| 20260906122052 | 80 | 0 | 0.0 | 3.0 | 0.00 | 0.00 | 0.00 | 44 | 1014.3 |
| 20260906121556 | 79 | 0 | 0.0 | 3.0 | 0.00 | 0.00 | 0.00 | 45 | 1014.2 |
| 20260906121052 | 80 | 0 | 0.0 | 1.0 | 0.00 | 0.00 | 0.00 | 49 | 1014.1 |
| 20260906120550 | 80 | 0 | 0.0 | 3.0 | 0.00 | 0.00 | 0.00 | 48 | 1014.1 |
| 20260906120106 | 81 | 265 | 0.0 | 3.0 | 0.00 | 0.00 | 0.00 | 47 | 1014.1 |
| 20260906115549 | 81 | 265 | 1.0 | 3.0 | 0.00 | 0.00 | 0.00 | 46 | 1014.0 |
| 20260906115051 | 82 | 0 | 0.0 | 4.0 | 0.00 | 0.00 | 0.00 | 43 | 1014.1 |
| 20260906114605 | 82 | 265 | 0.0 | 4.0 | 0.00 | 0.00 | 0.00 | 41 | 1014.1 |
| 20260906114052 | 82 | 264 | 1.0 | 4.0 | 0.00 | 0.00 | 0.00 | 40 | 1014.0 |
| 20260906113552 | 82 | 264 | 2.0 | 4.0 | 0.00 | 0.00 | 0.00 | 40 | 1013.9 |
| 20260906113105 | 82 | 264 | 2.0 | 4.0 | 0.00 | 0.00 | 0.00 | 40 | 1013.9 |
| 20260906112553 | 82 | 263 | 1.0 | 3.0 | 0.00 | 0.00 | 0.00 | 40 | 1013.9 |
| 20260906112052 | 82 | 263 | 0.0 | 3.0 | 0.00 | 0.00 | 0.00 | 39 | 1013.9 |
| 20260906111557 | 83 | 0 | 0.0 | 3.0 | 0.00 | 0.00 | 0.00 | 39 | 1013.9 |
| 20260906111052 | 83 | 263 | 0.0 | 4.0 | 0.00 | 0.00 | 0.00 | 39 | 1013.9 |
| 20260906110549 | 83 | 263 | 2.0 | 6.0 | 0.00 | 0.00 | 0.00 | 38 | 1013.8 |
| 20260906110103 | 83 | 265 | 1.0 | 6.0 | 0.00 | 0.00 | 0.00 | 38 | 1013.8 |
| 20260906105556 | 83 | 265 | 2.0 | 6.0 | 0.00 | 0.00 | 0.00 | 38 | 1013.8 |
| 20260906105051 | 83 | 271 | 2.0 | 6.0 | 0.00 | 0.00 | 0.00 | 38 | 1013.8 |
| 20260906104616 | 83 | 279 | 2.0 | 7.0 | 0.00 | 0.00 | 0.00 | 38 | 1013.7 |
| 20260906104053 | 83 | 277 | 2.0 | 7.0 | 0.00 | 0.00 | 0.00 | 38 | 1013.6 |
| 20260906103550 | 83 | 278 | 2.0 | 7.0 | 0.00 | 0.00 | 0.00 | 38 | 1013.7 |
| 20260906103101 | 83 | 263 | 2.0 | 7.0 | 0.00 | 0.00 | 0.00 | 38 | 1013.8 |
| 20260906102552 | 83 | 263 | 2.0 | 7.0 | 0.00 | 0.00 | 0.00 | 38 | 1013.8 |
| 20260906102052 | 83 | 250 | 2.0 | 8.0 | 0.00 | 0.00 | 0.00 | 38 | 1013.7 |
| 20260906101600 | 83 | 261 | 3.0 | 8.0 | 0.00 | 0.00 | 0.00 | 38 | 1013.8 |
| 20260906101052 | 83 | 249 | 3.0 | 7.0 | 0.00 | 0.00 | 0.00 | 38 | 1013.6 |
| 20260906100552 | 83 | 248 | 3.0 | 7.0 | 0.00 | 0.00 | 0.00 | 38 | 1013.6 |
| 20260906100103 | 83 | 249 | 2.0 | 7.0 | 0.00 | 0.00 | 0.00 | 38 | 1013.7 |
| 20260906095552 | 83 | 249 | 3.0 | 7.0 | 0.00 | 0.00 | 0.00 | 38 | 1013.6 |
| 20260906095052 | 83 | 248 | 3.0 | 5.0 | 0.00 | 0.00 | 0.00 | 38 | 1013.6 |
| 20260906094643 | 83 | 250 | 3.0 | 5.0 | 0.00 | 0.00 | 0.00 | 38 | 1013.5 |
| 20260906094052 | 82 | 252 | 2.0 | 5.0 | 0.00 | 0.00 | 0.00 | 39 | 1013.6 |
| 20260906093552 | 82 | 249 | 2.0 | 5.0 | 0.00 | 0.00 | 0.00 | 39 | 1013.6 |
| 20260906093108 | 82 | 252 | 1.0 | 3.0 | 0.00 | 0.00 | 0.00 | 40 | 1013.7 |
| 20260906092555 | 82 | 251 | 1.0 | 4.0 | 0.00 | 0.00 | 0.00 | 39 | 1013.6 |
| 20260906092052 | 82 | 251 | 1.0 | 4.0 | 0.00 | 0.00 | 0.00 | 39 | 1013.6 |
| 20260906091611 | 82 | 251 | 1.0 | 4.0 | 0.00 | 0.00 | 0.00 | 39 | 1013.7 |
| 20260906091053 | 82 | 251 | 1.0 | 4.0 | 0.00 | 0.00 | 0.00 | 39 | 1013.7 |
| 20260906090551 | 83 | 250 | 1.0 | 4.0 | 0.00 | 0.00 | 0.00 | 39 | 1013.7 |
| 20260906085553 | 82 | 249 | 2.0 | 4.0 | 0.00 | 0.00 | 0.00 | 39 | 1013.7 |
| 20260906085053 | 82 | 248 | 2.0 | 4.0 | 0.00 | 0.00 | 0.00 | 39 | 1013.8 |
| 20260906084605 | 83 | 248 | 1.0 | 3.0 | 0.00 | 0.00 | 0.00 | 39 | 1013.9 |
| 20260906084054 | 83 | 248 | 1.0 | 4.0 | 0.00 | 0.00 | 0.00 | 39 | 1013.8 |
| 20260906083554 | 83 | 248 | 2.0 | 4.0 | 0.00 | 0.00 | 0.00 | 38 | 1013.7 |
| 20260906083103 | 83 | 248 | 2.0 | 4.0 | 0.00 | 0.00 | 0.00 | 38 | 1013.7 |
| 20260906082550 | 83 | 248 | 1.0 | 7.0 | 0.00 | 0.00 | 0.00 | 38 | 1013.7 |
| 20260906082052 | 83 | 248 | 1.0 | 7.0 | 0.00 | 0.00 | 0.00 | 38 | 1013.8 |
| 20260906081601 | 83 | 254 | 2.0 | 4.0 | 0.00 | 0.00 | 0.00 | 38 | 1013.8 |
| 20260906081052 | 83 | 254 | 2.0 | 4.0 | 0.00 | 0.00 | 0.00 | 38 | 1013.9 |
| 20260906080553 | 83 | 255 | 2.0 | 6.0 | 0.00 | 0.00 | 0.00 | 38 | 1013.9 |
| 20260906075552 | 83 | 270 | 3.0 | 4.0 | 0.00 | 0.00 | 0.00 | 38 | 1014.0 |
| 20260906075055 | 83 | 270 | 2.0 | 3.0 | 0.00 | 0.00 | 0.00 | 39 | 1014.1 |
| 20260906074601 | 83 | 270 | 2.0 | 4.0 | 0.00 | 0.00 | 0.00 | 39 | 1014.1 |
| 20260906074053 | 83 | 270 | 2.0 | 4.0 | 0.00 | 0.00 | 0.00 | 39 | 1014.1 |
| 20260906073552 | 83 | 270 | 1.0 | 4.0 | 0.00 | 0.00 | 0.00 | 40 | 1014.1 |
| 20260906073102 | 83 | 270 | 2.0 | 4.0 | 0.00 | 0.00 | 0.00 | 40 | 1014.2 |
| 20260906072552 | 83 | 270 | 2.0 | 4.0 | 0.00 | 0.00 | 0.00 | 40 | 1014.3 |
| 20260906072051 | 82 | 270 | 2.0 | 4.0 | 0.00 | 0.00 | 0.00 | 40 | 1014.3 |
| 20260906071606 | 83 | 270 | 2.0 | 4.0 | 0.00 | 0.00 | 0.00 | 41 | 1014.3 |
| 20260906071055 | 83 | 270 | 2.0 | 4.0 | 0.00 | 0.00 | 0.00 | 40 | 1014.4 |
| 20260906070552 | 83 | 270 | 2.0 | 4.0 | 0.00 | 0.00 | 0.00 | 40 | 1014.4 |
| 20260906070059 | 83 | 270 | 2.0 | 4.0 | 0.00 | 0.00 | 0.00 | 41 | 1014.4 |
| 20260906065552 | 83 | 270 | 2.0 | 4.0 | 0.00 | 0.00 | 0.00 | 41 | 1014.3 |
| 20260906065052 | 83 | 271 | 2.0 | 4.0 | 0.00 | 0.00 | 0.00 | 41 | 1014.4 |
| 20260906064601 | 83 | 271 | 2.0 | 3.0 | 0.00 | 0.00 | 0.00 | 41 | 1014.3 |
| 20260906064052 | 82 | 271 | 2.0 | 3.0 | 0.00 | 0.00 | 0.00 | 41 | 1014.5 |
| 20260906063552 | 83 | 271 | 2.0 | 3.0 | 0.00 | 0.00 | 0.00 | 41 | 1014.5 |
| 20260906063103 | 83 | 0 | 0.0 | 0.0 | 0.00 | 0.00 | 0.00 | 40 | 1014.5 |
| 20260906062551 | 84 | 0 | 0.0 | 0.0 | 0.00 | 0.00 | 0.00 | 40 | 1014.5 |
| 20260906062057 | 84 | 0 | 0.0 | 1.0 | 0.00 | 0.00 | 0.00 | 38 | 1014.5 |
| 20260906061604 | 84 | 0 | 0.0 | 1.0 | 0.00 | 0.00 | 0.00 | 38 | 1014.4 |
| 20260906061052 | 85 | 0 | 0.0 | 3.0 | 0.00 | 0.00 | 0.00 | 38 | 1014.4 |
| 20260906060555 | 85 | 0 | 0.0 | 3.0 | 0.00 | 0.00 | 0.00 | 38 | 1014.4 |
| 20260906060100 | 85 | 0 | 0.0 | 4.0 | 0.00 | 0.00 | 0.00 | 37 | 1014.5 |
| 20260906055555 | 85 | 0 | 1.0 | 4.0 | 0.00 | 0.00 | 0.00 | 37 | 1014.5 |
| 20260906055053 | 86 | 271 | 2.0 | 4.0 | 0.00 | 0.00 | 0.00 | 37 | 1014.6 |
| 20260906054604 | 86 | 272 | 2.0 | 4.0 | 0.00 | 0.00 | 0.00 | 37 | 1014.5 |
| 20260906054052 | 86 | 273 | 2.0 | 6.0 | 0.00 | 0.00 | 0.00 | 36 | 1014.5 |
| 20260906053551 | 86 | 275 | 1.0 | 6.0 | 0.00 | 0.00 | 0.00 | 36 | 1014.6 |
| 20260906053104 | 86 | 281 | 3.0 | 6.0 | 0.00 | 0.00 | 0.00 | 36 | 1014.6 |
| 20260906052554 | 86 | 259 | 2.0 | 7.0 | 0.00 | 0.00 | 0.00 | 36 | 1014.6 |
| 20260906052051 | 86 | 284 | 3.0 | 7.0 | 0.00 | 0.00 | 0.00 | 37 | 1014.5 |
| 20260906051601 | 86 | 281 | 2.0 | 7.0 | 0.00 | 0.00 | 0.00 | 36 | 1014.6 |
| 20260906051058 | 87 | 276 | 2.0 | 7.0 | 0.00 | 0.00 | 0.00 | 37 | 1014.7 |
| 20260906050552 | 87 | 288 | 2.0 | 7.0 | 0.00 | 0.00 | 0.00 | 37 | 1014.8 |
| 20260906050133 | 87 | 292 | 3.0 | 7.0 | 0.00 | 0.00 | 0.00 | 37 | 1014.8 |
| 20260906045552 | 87 | 276 | 3.0 | 7.0 | 0.00 | 0.00 | 0.00 | 36 | 1014.8 |
| 20260906045051 | 87 | 257 | 2.0 | 9.0 | 0.00 | 0.00 | 0.00 | 36 | 1014.7 |
| 20260906044559 | 87 | 292 | 3.0 | 9.0 | 0.00 | 0.00 | 0.00 | 36 | 1014.7 |
| 20260906044056 | 87 | 277 | 3.0 | 9.0 | 0.00 | 0.00 | 0.00 | 36 | 1014.6 |
| 20260906043552 | 87 | 291 | 3.0 | 8.0 | 0.00 | 0.00 | 0.00 | 37 | 1014.6 |
| 20260906043058 | 87 | 303 | 2.0 | 8.0 | 0.00 | 0.00 | 0.00 | 38 | 1014.6 |
| 20260906042551 | 87 | 275 | 1.0 | 7.0 | 0.00 | 0.00 | 0.00 | 38 | 1014.7 |
| 20260906042052 | 87 | 261 | 0.0 | 3.0 | 0.00 | 0.00 | 0.00 | 39 | 1014.6 |
| 20260906041601 | 87 | 261 | 1.0 | 3.0 | 0.00 | 0.00 | 0.00 | 39 | 1014.7 |
| 20260906041052 | 87 | 261 | 1.0 | 3.0 | 0.00 | 0.00 | 0.00 | 39 | 1014.6 |
| 20260906040553 | 87 | 261 | 1.0 | 4.0 | 0.00 | 0.00 | 0.00 | 39 | 1014.6 |
| 20260906040137 | 87 | 261 | 1.0 | 4.0 | 0.00 | 0.00 | 0.00 | 38 | 1014.6 |
| 20260906035554 | 88 | 261 | 1.0 | 4.0 | 0.00 | 0.00 | 0.00 | 38 | 1014.5 |
| 20260906035054 | 88 | 261 | 2.0 | 4.0 | 0.00 | 0.00 | 0.00 | 38 | 1014.5 |
| 20260906034607 | 88 | 261 | 1.0 | 4.0 | 0.00 | 0.00 | 0.00 | 38 | 1014.5 |
| 20260906034052 | 88 | 261 | 1.0 | 4.0 | 0.00 | 0.00 | 0.00 | 38 | 1014.4 |
| 20260906033549 | 88 | 261 | 1.0 | 6.0 | 0.00 | 0.00 | 0.00 | 38 | 1014.3 |
| 20260906033058 | 88 | 261 | 2.0 | 6.0 | 0.00 | 0.00 | 0.00 | 38 | 1014.4 |
| 20260906032551 | 88 | 259 | 2.0 | 7.0 | 0.00 | 0.00 | 0.00 | 38 | 1014.4 |
| 20260906032052 | 89 | 253 | 2.0 | 7.0 | 0.00 | 0.00 | 0.00 | 38 | 1014.3 |
| 20260906031604 | 89 | 277 | 2.0 | 6.0 | 0.00 | 0.00 | 0.00 | 38 | 1014.1 |
| 20260906031053 | 89 | 288 | 2.0 | 5.0 | 0.00 | 0.00 | 0.00 | 37 | 1014.1 |
| 20260906030553 | 89 | 286 | 2.0 | 5.0 | 0.00 | 0.00 | 0.00 | 37 | 1014.0 |
| 20260906030105 | 89 | 304 | 1.0 | 7.0 | 0.00 | 0.00 | 0.00 | 37 | 1013.9 |
| 20260906025552 | 89 | 284 | 2.0 | 8.0 | 0.00 | 0.00 | 0.00 | 37 | 1014.0 |
| 20260906025052 | 89 | 288 | 3.0 | 8.0 | 0.00 | 0.00 | 0.00 | 36 | 1013.8 |
| 20260906024606 | 89 | 283 | 2.0 | 8.0 | 0.00 | 0.00 | 0.00 | 36 | 1013.8 |
| 20260906024052 | 90 | 290 | 3.0 | 8.0 | 0.00 | 0.00 | 0.00 | 36 | 1013.8 |
| 20260906023552 | 90 | 292 | 2.0 | 5.0 | 0.00 | 0.00 | 0.00 | 36 | 1013.7 |
| 20260906023103 | 90 | 302 | 1.0 | 5.0 | 0.00 | 0.00 | 0.00 | 35 | 1013.7 |
| 20260906022554 | 90 | 303 | 1.0 | 5.0 | 0.00 | 0.00 | 0.00 | 35 | 1013.5 |
| 20260906022053 | 90 | 303 | 2.0 | 5.0 | 0.00 | 0.00 | 0.00 | 35 | 1013.4 |
| 20260906021607 | 90 | 311 | 2.0 | 9.0 | 0.00 | 0.00 | 0.00 | 34 | 1013.4 |
| 20260906021052 | 90 | 303 | 2.0 | 9.0 | 0.00 | 0.00 | 0.00 | 34 | 1013.4 |
| 20260906020552 | 91 | 274 | 2.0 | 9.0 | 0.00 | 0.00 | 0.00 | 34 | 1013.5 |
| 20260906020108 | 91 | 300 | 3.0 | 9.0 | 0.00 | 0.00 | 0.00 | 33 | 1013.5 |
| 20260906015555 | 91 | 295 | 1.0 | 7.0 | 0.00 | 0.00 | 0.00 | 33 | 1013.4 |
| 20260906015052 | 91 | 300 | 3.0 | 7.0 | 0.00 | 0.00 | 0.00 | 33 | 1013.5 |
| 20260906014602 | 91 | 0 | 1.0 | 10.0 | 0.00 | 0.00 | 0.00 | 33 | 1013.5 |
| 20260906014052 | 91 | 313 | 2.0 | 10.0 | 0.00 | 0.00 | 0.00 | 33 | 1013.4 |
| 20260906013551 | 91 | 351 | 4.0 | 10.0 | 0.00 | 0.00 | 0.00 | 33 | 1013.4 |
| 20260906013058 | 92 | 321 | 4.0 | 10.0 | 0.00 | 0.00 | 0.00 | 32 | 1013.4 |
| 20260906012555 | 92 | 328 | 3.0 | 10.0 | 0.00 | 0.00 | 0.00 | 32 | 1013.4 |
| 20260906012051 | 92 | 303 | 3.0 | 9.0 | 0.00 | 0.00 | 0.00 | 32 | 1013.4 |
| 20260906011603 | 92 | 282 | 3.0 | 9.0 | 0.00 | 0.00 | 0.00 | 32 | 1013.4 |
| 20260906011054 | 92 | 309 | 3.0 | 10.0 | 0.00 | 0.00 | 0.00 | 32 | 1013.5 |
| 20260906010551 | 93 | 294 | 4.0 | 10.0 | 0.00 | 0.00 | 0.00 | 32 | 1013.4 |
| 20260906010106 | 93 | 271 | 5.0 | 10.0 | 0.00 | 0.00 | 0.00 | 32 | 1013.4 |
| 20260906005551 | 93 | 319 | 4.0 | 12.0 | 0.00 | 0.00 | 0.00 | 33 | 1013.5 |
| 20260906005053 | 93 | 0 | 4.0 | 12.0 | 0.00 | 0.00 | 0.00 | 32 | 1013.5 |
| 20260906004605 | 94 | 323 | 3.0 | 10.0 | 0.00 | 0.00 | 0.00 | 32 | 1013.5 |
| 20260906004051 | 94 | 272 | 4.0 | 10.0 | 0.00 | 0.00 | 0.00 | 32 | 1013.5 |
| 20260906003552 | 94 | 297 | 5.0 | 10.0 | 0.00 | 0.00 | 0.00 | 32 | 1013.5 |
| 20260906003105 | 94 | 5 | 4.0 | 9.0 | 0.00 | 0.00 | 0.00 | 32 | 1013.4 |
| 20260906002551 | 94 | 277 | 4.0 | 14.0 | 0.00 | 0.00 | 0.00 | 32 | 1013.5 |
| 20260906002052 | 95 | 293 | 6.0 | 14.0 | 0.00 | 0.00 | 0.00 | 32 | 1013.4 |
| 20260906001612 | 95 | 254 | 3.0 | 9.0 | 0.00 | 0.00 | 0.00 | 32 | 1013.5 |
| 20260906001051 | 95 | 319 | 3.0 | 9.0 | 0.00 | 0.00 | 0.00 | 32 | 1013.4 |
| 20260906000554 | 95 | 263 | 3.0 | 9.0 | 0.00 | 0.00 | 0.00 | 32 | 1013.5 |
| 20260906000059 | 95 | 340 | 2.0 | 11.0 | 0.00 | 0.00 | 0.00 | 32 | 1013.5 |
| 20260905235551 | 95 | 286 | 4.0 | 14.0 | 0.00 | 0.00 | 0.00 | 33 | 1013.4 |
| 20260905235051 | 95 | 273 | 6.0 | 14.0 | 0.00 | 0.00 | 0.00 | 32 | 1013.4 |
| 20260905234605 | 95 | 290 | 5.0 | 13.0 | 0.00 | 0.00 | 0.00 | 32 | 1013.4 |
| 20260905234052 | 95 | 265 | 4.0 | 11.0 | 0.00 | 0.00 | 0.00 | 32 | 1013.4 |
| 20260905233552 | 95 | 263 | 5.0 | 12.0 | 0.00 | 0.00 | 0.00 | 32 | 1013.4 |
| 20260905233112 | 95 | 284 | 5.0 | 12.0 | 0.00 | 0.00 | 0.00 | 32 | 1013.4 |
| 20260905232551 | 95 | 305 | 7.0 | 12.0 | 0.00 | 0.00 | 0.00 | 32 | 1013.4 |
| 20260905232051 | 95 | 311 | 4.0 | 13.0 | 0.00 | 0.00 | 0.00 | 32 | 1013.5 |
| 20260905231602 | 95 | 306 | 6.0 | 13.0 | 0.00 | 0.00 | 0.00 | 32 | 1013.6 |
| 20260905231054 | 95 | 277 | 7.0 | 13.0 | 0.00 | 0.00 | 0.00 | 32 | 1013.5 |
| 20260905230551 | 95 | 319 | 6.0 | 13.0 | 0.00 | 0.00 | 0.00 | 32 | 1013.5 |
| 20260905230100 | 95 | 306 | 7.0 | 13.0 | 0.00 | 0.00 | 0.00 | 32 | 1013.6 |
| 20260905225551 | 95 | 248 | 7.0 | 12.0 | 0.00 | 0.00 | 0.00 | 32 | 1013.6 |
| 20260905225051 | 95 | 280 | 5.0 | 12.0 | 0.00 | 0.00 | 0.00 | 31 | 1013.7 |
| 20260905224610 | 95 | 260 | 4.0 | 13.0 | 0.00 | 0.00 | 0.00 | 31 | 1013.6 |
| 20260905224050 | 95 | 295 | 5.0 | 13.0 | 0.00 | 0.00 | 0.00 | 31 | 1013.6 |
| 20260905223551 | 95 | 255 | 6.0 | 14.0 | 0.00 | 0.00 | 0.00 | 31 | 1013.8 |
| 20260905223102 | 96 | 263 | 7.0 | 14.0 | 0.00 | 0.00 | 0.00 | 30 | 1013.9 |
| 20260905222552 | 96 | 288 | 2.0 | 13.0 | 0.00 | 0.00 | 0.00 | 31 | 1013.9 |